| time (UTC) | temp F | wind direction | speed MPH | gust MPH | rain 1hr in | rain 24hr in | rain mn in | humidity % | barometer mb |
| 20260506211530 | 43 | 352 | 8.0 | 13.0 | 0.02 | 0.71 | 0.69 | 95 | 1008.7 |
| 20260506211014 | 43 | 44 | 3.0 | 12.0 | 0.02 | 0.71 | 0.69 | 95 | 1008.5 |
| 20260506210520 | 43 | 21 | 6.0 | 13.0 | 0.02 | 0.71 | 0.69 | 95 | 1008.5 |
| 20260506210050 | 43 | 46 | 5.0 | 11.0 | 0.02 | 0.71 | 0.69 | 95 | 1008.4 |
| 20260506205513 | 43 | 71 | 5.0 | 14.0 | 0.02 | 0.72 | 0.69 | 95 | 1008.4 |
| 20260506205016 | 42 | 44 | 5.0 | 14.0 | 0.02 | 0.72 | 0.69 | 95 | 1008.3 |
| 20260506204532 | 42 | 66 | 4.0 | 13.0 | 0.02 | 0.72 | 0.69 | 95 | 1008.3 |
| 20260506204013 | 42 | 26 | 6.0 | 13.0 | 0.02 | 0.72 | 0.69 | 95 | 1008.6 |
| 20260506203514 | 42 | 91 | 5.0 | 10.0 | 0.01 | 0.72 | 0.68 | 95 | 1008.4 |
| 20260506203031 | 42 | 60 | 5.0 | 9.0 | 0.01 | 0.72 | 0.68 | 95 | 1008.5 |
| 20260506202515 | 42 | 50 | 3.0 | 10.0 | 0.01 | 0.72 | 0.68 | 95 | 1008.6 |
| 20260506202011 | 42 | 71 | 3.0 | 10.0 | 0.02 | 0.72 | 0.68 | 95 | 1008.6 |
| 20260506201534 | 42 | 80 | 3.0 | 10.0 | 0.01 | 0.71 | 0.66 | 95 | 1008.6 |
| 20260506201011 | 42 | 62 | 4.0 | 10.0 | 0.01 | 0.71 | 0.66 | 95 | 1008.6 |
| 20260506200514 | 42 | 109 | 4.0 | 9.0 | 0.01 | 0.71 | 0.66 | 95 | 1008.6 |
| 20260506200025 | 43 | 107 | 3.0 | 7.0 | 0.01 | 0.71 | 0.66 | 95 | 1008.7 |
| 20260506195515 | 43 | 123 | 2.0 | 6.0 | 0.01 | 0.71 | 0.66 | 95 | 1008.6 |
| 20260506195011 | 43 | 65 | 2.0 | 9.0 | 0.01 | 0.71 | 0.66 | 95 | 1008.6 |
| 20260506194533 | 43 | 115 | 4.0 | 9.0 | 0.02 | 0.71 | 0.66 | 95 | 1008.6 |
| 20260506194011 | 43 | 58 | 3.0 | 8.0 | 0.02 | 0.71 | 0.66 | 95 | 1008.6 |
| 20260506193511 | 43 | 30 | 3.0 | 9.0 | 0.02 | 0.71 | 0.66 | 95 | 1008.5 |
| 20260506193043 | 43 | 82 | 4.0 | 9.0 | 0.02 | 0.71 | 0.66 | 95 | 1008.5 |
| 20260506192512 | 43 | 104 | 3.0 | 6.0 | 0.02 | 0.71 | 0.66 | 95 | 1008.6 |
| 20260506192014 | 43 | 78 | 2.0 | 11.0 | 0.01 | 0.70 | 0.66 | 95 | 1008.5 |
| 20260506191538 | 43 | 75 | 2.0 | 11.0 | 0.01 | 0.70 | 0.66 | 95 | 1008.5 |
| 20260506191014 | 43 | 57 | 3.0 | 9.0 | 0.01 | 0.70 | 0.66 | 95 | 1008.4 |
| 20260506190512 | 42 | 61 | 3.0 | 11.0 | 0.01 | 0.70 | 0.66 | 95 | 1008.4 |
| 20260506190034 | 43 | 36 | 4.0 | 11.0 | 0.01 | 0.70 | 0.66 | 94 | 1008.4 |
| 20260506185514 | 43 | 80 | 3.0 | 9.0 | 0.01 | 0.75 | 0.66 | 95 | 1008.5 |
| 20260506185012 | 43 | 64 | 3.0 | 9.0 | 0.02 | 0.75 | 0.66 | 95 | 1008.4 |
| 20260506184547 | 43 | 40 | 3.0 | 9.0 | 0.01 | 0.74 | 0.65 | 95 | 1008.5 |
| 20260506184012 | 43 | 21 | 4.0 | 10.0 | 0.01 | 0.74 | 0.65 | 95 | 1008.5 |
| 20260506183517 | 43 | 360 | 4.0 | 10.0 | 0.02 | 0.74 | 0.65 | 95 | 1008.5 |
| 20260506183038 | 43 | 53 | 4.0 | 12.0 | 0.03 | 0.74 | 0.65 | 95 | 1008.6 |
| 20260506182511 | 43 | 30 | 5.0 | 12.0 | 0.03 | 0.74 | 0.65 | 95 | 1008.7 |
| 20260506182012 | 43 | 55 | 4.0 | 11.0 | 0.04 | 0.74 | 0.65 | 95 | 1008.9 |
| 20260506181542 | 43 | 24 | 4.0 | 11.0 | 0.04 | 0.74 | 0.65 | 95 | 1008.9 |
| 20260506181016 | 43 | 25 | 5.0 | 10.0 | 0.04 | 0.74 | 0.65 | 95 | 1008.9 |
| 20260506180514 | 43 | 344 | 4.0 | 10.0 | 0.04 | 0.74 | 0.65 | 95 | 1008.9 |
| 20260506180037 | 43 | 91 | 4.0 | 11.0 | 0.06 | 0.74 | 0.65 | 95 | 1009.1 |
| 20260506175515 | 43 | 71 | 5.0 | 11.0 | 0.04 | 0.72 | 0.64 | 95 | 1008.9 |
| 20260506175015 | 42 | 72 | 2.0 | 11.0 | 0.06 | 0.72 | 0.64 | 95 | 1009.2 |
| 20260506174538 | 42 | 66 | 5.0 | 11.0 | 0.06 | 0.72 | 0.64 | 95 | 1009.2 |
| 20260506174015 | 42 | 77 | 4.0 | 10.0 | 0.06 | 0.72 | 0.63 | 95 | 1009.2 |
| 20260506173515 | 42 | 80 | 6.0 | 11.0 | 0.06 | 0.72 | 0.63 | 94 | 1009.4 |
| 20260506173041 | 42 | 60 | 5.0 | 11.0 | 0.04 | 0.71 | 0.62 | 94 | 1009.5 |
| 20260506172513 | 42 | 90 | 5.0 | 10.0 | 0.04 | 0.71 | 0.62 | 94 | 1009.6 |
| 20260506172015 | 42 | 50 | 6.0 | 11.0 | 0.04 | 0.70 | 0.61 | 94 | 1009.6 |
| 20260506171542 | 42 | 90 | 5.0 | 13.0 | 0.04 | 0.70 | 0.61 | 94 | 1009.5 |
| 20260506171013 | 42 | 70 | 7.0 | 13.0 | 0.04 | 0.69 | 0.59 | 94 | 1009.6 |
| 20260506170515 | 42 | 71 | 6.0 | 12.0 | 0.04 | 0.69 | 0.59 | 94 | 1009.8 |
| 20260506170046 | 42 | 51 | 6.0 | 10.0 | 0.04 | 0.68 | 0.58 | 94 | 1009.6 |
| 20260506165512 | 42 | 46 | 5.0 | 10.0 | 0.04 | 0.66 | 0.58 | 94 | 1009.7 |
| 20260506165012 | 42 | 38 | 5.0 | 11.0 | 0.04 | 0.66 | 0.58 | 94 | 1009.6 |
| 20260506164553 | 42 | 42 | 5.0 | 13.0 | 0.06 | 0.66 | 0.58 | 94 | 1009.6 |
| 20260506164014 | 42 | 78 | 5.0 | 13.0 | 0.04 | 0.66 | 0.57 | 94 | 1009.8 |
| 20260506163512 | 42 | 71 | 5.0 | 13.0 | 0.06 | 0.66 | 0.57 | 94 | 1009.8 |
| 20260506163037 | 42 | 59 | 5.0 | 12.0 | 0.07 | 0.66 | 0.57 | 94 | 1009.9 |
| 20260506162512 | 42 | 62 | 3.0 | 13.0 | 0.06 | 0.65 | 0.56 | 94 | 1009.8 |
| 20260506162015 | 42 | 46 | 6.0 | 12.0 | 0.07 | 0.65 | 0.56 | 94 | 1009.9 |
| 20260506161535 | 42 | 51 | 5.0 | 14.0 | 0.08 | 0.65 | 0.56 | 94 | 1009.9 |
| 20260506161017 | 42 | 43 | 5.0 | 14.0 | 0.08 | 0.64 | 0.55 | 94 | 1010.1 |
| 20260506160515 | 42 | 57 | 6.0 | 13.0 | 0.08 | 0.64 | 0.55 | 94 | 1010.0 |
| 20260506160038 | 42 | 78 | 6.0 | 15.0 | 0.08 | 0.63 | 0.53 | 94 | 1010.0 |
| 20260506155515 | 42 | 77 | 8.0 | 15.0 | 0.09 | 0.63 | 0.53 | 94 | 1009.9 |
| 20260506155010 | 42 | 59 | 7.0 | 13.0 | 0.09 | 0.62 | 0.52 | 94 | 1010.1 |
| 20260506154544 | 42 | 72 | 5.0 | 13.0 | 0.08 | 0.61 | 0.52 | 94 | 1010.3 |
| 20260506154014 | 42 | 348 | 7.0 | 16.0 | 0.08 | 0.59 | 0.51 | 94 | 1010.1 |
| 20260506153514 | 42 | 40 | 7.0 | 13.0 | 0.09 | 0.59 | 0.51 | 94 | 1009.9 |
| 20260506153038 | 42 | 82 | 5.0 | 11.0 | 0.08 | 0.58 | 0.50 | 94 | 1010.1 |
| 20260506152512 | 42 | 101 | 6.0 | 11.0 | 0.08 | 0.58 | 0.48 | 94 | 1010.2 |
| 20260506152015 | 42 | 83 | 3.0 | 12.0 | 0.09 | 0.58 | 0.48 | 94 | 1010.2 |
| 20260506151539 | 42 | 44 | 6.0 | 11.0 | 0.08 | 0.57 | 0.48 | 94 | 1010.0 |
| 20260506151013 | 42 | 106 | 4.0 | 11.0 | 0.08 | 0.56 | 0.47 | 94 | 1010.1 |
| 20260506150514 | 42 | 63 | 4.0 | 11.0 | 0.08 | 0.56 | 0.47 | 94 | 1010.2 |
| 20260506150043 | 42 | 74 | 5.0 | 11.0 | 0.08 | 0.55 | 0.45 | 93 | 1010.2 |
| 20260506145510 | 42 | 96 | 6.0 | 12.0 | 0.07 | 0.53 | 0.45 | 93 | 1010.0 |
| 20260506145017 | 42 | 110 | 6.0 | 12.0 | 0.06 | 0.52 | 0.44 | 93 | 1010.0 |
| 20260506144536 | 43 | 42 | 4.0 | 11.0 | 0.07 | 0.52 | 0.44 | 93 | 1010.0 |
| 20260506144014 | 43 | 86 | 4.0 | 12.0 | 0.06 | 0.52 | 0.42 | 93 | 1009.8 |
| 20260506143517 | 43 | 44 | 6.0 | 12.0 | 0.06 | 0.51 | 0.42 | 93 | 1009.8 |
| 20260506143039 | 43 | 49 | 5.0 | 10.0 | 0.06 | 0.50 | 0.41 | 93 | 1009.6 |
| 20260506142515 | 43 | 49 | 5.0 | 10.0 | 0.06 | 0.50 | 0.41 | 93 | 1009.7 |
| 20260506142013 | 43 | 73 | 4.0 | 12.0 | 0.04 | 0.48 | 0.39 | 93 | 1009.8 |
| 20260506141543 | 43 | 57 | 4.0 | 12.0 | 0.04 | 0.48 | 0.39 | 93 | 1009.6 |
| 20260506141017 | 43 | 52 | 6.0 | 12.0 | 0.04 | 0.48 | 0.39 | 93 | 1009.6 |
| 20260506140515 | 43 | 30 | 5.0 | 11.0 | 0.04 | 0.48 | 0.39 | 93 | 1009.6 |
| 20260506140038 | 43 | 74 | 4.0 | 12.0 | 0.04 | 0.47 | 0.38 | 93 | 1009.7 |
| 20260506135514 | 43 | 50 | 5.0 | 14.0 | 0.04 | 0.47 | 0.38 | 93 | 1009.9 |
| 20260506135014 | 43 | 126 | 4.0 | 14.0 | 0.03 | 0.45 | 0.37 | 93 | 1009.7 |
| 20260506134535 | 43 | 55 | 4.0 | 11.0 | 0.03 | 0.45 | 0.37 | 93 | 1009.8 |
| 20260506134014 | 43 | 47 | 5.0 | 11.0 | 0.03 | 0.45 | 0.36 | 93 | 1009.7 |
| 20260506133516 | 43 | 52 | 5.0 | 11.0 | 0.03 | 0.45 | 0.36 | 93 | 1009.8 |
| 20260506133042 | 43 | 55 | 2.0 | 11.0 | 0.03 | 0.44 | 0.35 | 93 | 1009.9 |
| 20260506132513 | 43 | 55 | 5.0 | 11.0 | 0.03 | 0.44 | 0.35 | 93 | 1009.8 |
| 20260506132014 | 44 | 64 | 6.0 | 11.0 | 0.04 | 0.44 | 0.35 | 93 | 1009.9 |
| 20260506131545 | 44 | 23 | 4.0 | 10.0 | 0.04 | 0.44 | 0.35 | 93 | 1009.7 |
| 20260506131015 | 44 | 48 | 4.0 | 10.0 | 0.06 | 0.44 | 0.35 | 93 | 1009.7 |
| 20260506130515 | 44 | 44 | 3.0 | 12.0 | 0.04 | 0.42 | 0.34 | 93 | 1009.9 |
| 20260506130044 | 44 | 74 | 5.0 | 12.0 | 0.06 | 0.42 | 0.34 | 93 | 1009.7 |
| 20260506125517 | 44 | 78 | 4.0 | 11.0 | 0.07 | 0.42 | 0.34 | 93 | 1009.9 |
| 20260506125012 | 44 | 27 | 6.0 | 11.0 | 0.07 | 0.42 | 0.34 | 93 | 1010.0 |
| 20260506124551 | 44 | 75 | 4.0 | 10.0 | 0.07 | 0.42 | 0.33 | 92 | 1010.2 |
| 20260506124014 | 44 | 105 | 5.0 | 11.0 | 0.07 | 0.42 | 0.33 | 92 | 1010.3 |
| 20260506123514 | 44 | 136 | 4.0 | 11.0 | 0.06 | 0.41 | 0.32 | 92 | 1010.2 |
| 20260506123046 | 44 | 360 | 3.0 | 11.0 | 0.07 | 0.41 | 0.32 | 92 | 1010.1 |
| 20260506122518 | 44 | 81 | 5.0 | 13.0 | 0.07 | 0.41 | 0.32 | 91 | 1010.0 |
| 20260506122003 | 44 | 97 | 5.0 | 12.0 | 0.06 | 0.39 | 0.31 | 91 | 1009.9 |
| 20260506121528 | 45 | 65 | 3.0 | 11.0 | 0.06 | 0.39 | 0.29 | 91 | 1010.2 |
| 20260506121009 | 45 | 15 | 6.0 | 11.0 | 0.04 | 0.38 | 0.29 | 91 | 1010.3 |
| 20260506120509 | 45 | 26 | 2.0 | 9.0 | 0.04 | 0.37 | 0.28 | 91 | 1010.4 |
| 20260506120049 | 45 | 41 | 4.0 | 11.0 | 0.04 | 0.37 | 0.28 | 91 | 1010.2 |
| 20260506115508 | 45 | 22 | 6.0 | 11.0 | 0.03 | 0.36 | 0.26 | 90 | 1010.3 |
| 20260506115009 | 45 | 51 | 5.0 | 10.0 | 0.03 | 0.36 | 0.26 | 89 | 1010.4 |
| 20260506114532 | 46 | 76 | 4.0 | 11.0 | 0.02 | 0.35 | 0.26 | 89 | 1010.6 |
| 20260506114012 | 46 | 40 | 4.0 | 12.0 | 0.03 | 0.35 | 0.26 | 90 | 1010.3 |
| 20260506113511 | 46 | 74 | 5.0 | 13.0 | 0.03 | 0.35 | 0.26 | 90 | 1010.2 |
| 20260506113028 | 46 | 51 | 6.0 | 13.0 | 0.02 | 0.34 | 0.25 | 90 | 1010.2 |
| 20260506112506 | 46 | 34 | 6.0 | 10.0 | 0.02 | 0.34 | 0.25 | 90 | 1010.2 |
| 20260506112010 | 46 | 56 | 5.0 | 10.0 | 0.02 | 0.34 | 0.25 | 91 | 1010.3 |
| 20260506111528 | 46 | 53 | 4.0 | 10.0 | 0.01 | 0.33 | 0.24 | 91 | 1010.3 |
| 20260506111010 | 46 | 37 | 3.0 | 9.0 | 0.01 | 0.33 | 0.24 | 91 | 1010.4 |
| 20260506110511 | 47 | 32 | 3.0 | 10.0 | 0.01 | 0.33 | 0.24 | 91 | 1010.2 |
| 20260506110030 | 46 | 36 | 4.0 | 11.0 | 0.01 | 0.33 | 0.24 | 91 | 1010.0 |
| 20260506105511 | 47 | 49 | 3.0 | 11.0 | 0.01 | 0.33 | 0.24 | 91 | 1009.9 |
| 20260506105011 | 47 | 50 | 4.0 | 10.0 | 0.01 | 0.33 | 0.24 | 91 | 1009.9 |
| 20260506104539 | 46 | 63 | 6.0 | 10.0 | 0.01 | 0.33 | 0.24 | 91 | 1009.6 |
| 20260506104011 | 47 | 33 | 3.0 | 10.0 | 0.00 | 0.32 | 0.22 | 91 | 1009.5 |
| 20260506103508 | 47 | 38 | 5.0 | 10.0 | 0.00 | 0.32 | 0.22 | 91 | 1009.5 |
| 20260506103039 | 47 | 63 | 4.0 | 10.0 | 0.01 | 0.32 | 0.22 | 91 | 1009.9 |
| 20260506102511 | 47 | 82 | 5.0 | 10.0 | 0.04 | 0.32 | 0.22 | 91 | 1010.0 |
| 20260506102011 | 47 | 57 | 5.0 | 10.0 | 0.04 | 0.32 | 0.22 | 91 | 1010.1 |
| 20260506101528 | 47 | 68 | 4.0 | 13.0 | 0.04 | 0.32 | 0.22 | 91 | 1009.6 |
| 20260506101009 | 47 | 103 | 6.0 | 13.0 | 0.04 | 0.32 | 0.22 | 91 | 1009.5 |
| 20260506100511 | 47 | 53 | 6.0 | 14.0 | 0.06 | 0.32 | 0.22 | 91 | 1009.7 |
| 20260506100030 | 48 | 51 | 5.0 | 13.0 | 0.06 | 0.32 | 0.22 | 91 | 1009.6 |
| 20260506095510 | 48 | 50 | 7.0 | 13.0 | 0.06 | 0.32 | 0.22 | 91 | 1009.5 |
| 20260506095008 | 48 | 76 | 6.0 | 11.0 | 0.07 | 0.32 | 0.22 | 92 | 1009.7 |
| 20260506094528 | 49 | 59 | 4.0 | 9.0 | 0.07 | 0.32 | 0.22 | 92 | 1009.9 |
| 20260506094007 | 49 | 63 | 4.0 | 9.0 | 0.07 | 0.32 | 0.22 | 92 | 1010.0 |
| 20260506093509 | 49 | 32 | 4.0 | 11.0 | 0.07 | 0.32 | 0.22 | 92 | 1009.9 |
| 20260506093028 | 49 | 40 | 3.0 | 10.0 | 0.08 | 0.31 | 0.22 | 92 | 1009.0 |
| 20260506092508 | 49 | 60 | 3.0 | 11.0 | 0.04 | 0.26 | 0.18 | 93 | 1010.1 |
| 20260506092010 | 50 | 57 | 5.0 | 11.0 | 0.04 | 0.26 | 0.18 | 93 | 1009.9 |
| 20260506091529 | 50 | 34 | 5.0 | 11.0 | 0.04 | 0.26 | 0.18 | 93 | 1009.5 |
| 20260506091006 | 50 | 61 | 4.0 | 9.0 | 0.06 | 0.26 | 0.18 | 93 | 1009.5 |
| 20260506090510 | 50 | 62 | 3.0 | 6.0 | 0.08 | 0.26 | 0.17 | 93 | 1009.4 |
| 20260506090030 | 50 | 38 | 3.0 | 6.0 | 0.08 | 0.26 | 0.17 | 93 | 1010.1 |
| 20260506085507 | 50 | 65 | 2.0 | 6.0 | 0.08 | 0.26 | 0.17 | 93 | 1009.5 |
| 20260506085011 | 50 | 19 | 3.0 | 8.0 | 0.07 | 0.25 | 0.16 | 93 | 1010.2 |
| 20260506084606 | 50 | 44 | 3.0 | 8.0 | 0.07 | 0.25 | 0.16 | 92 | 1009.5 |
| 20260506084012 | 50 | 39 | 4.0 | 7.0 | 0.07 | 0.25 | 0.16 | 92 | 1009.5 |
| 20260506083508 | 51 | 49 | 3.0 | 7.0 | 0.09 | 0.25 | 0.16 | 92 | 1009.8 |
| 20260506083029 | 51 | 96 | 3.0 | 6.0 | 0.11 | 0.22 | 0.14 | 92 | 1010.0 |
| 20260506082511 | 51 | 101 | 2.0 | 6.0 | 0.11 | 0.22 | 0.14 | 92 | 1009.5 |
| 20260506082011 | 51 | 44 | 2.0 | 8.0 | 0.09 | 0.22 | 0.13 | 92 | 1009.5 |
| 20260506081537 | 51 | 66 | 3.0 | 8.0 | 0.09 | 0.22 | 0.13 | 92 | 1009.7 |
| 20260506081011 | 51 | 61 | 2.0 | 7.0 | 0.09 | 0.21 | 0.12 | 92 | 1009.5 |
| 20260506080511 | 51 | 92 | 2.0 | 7.0 | 0.06 | 0.18 | 0.09 | 91 | 1009.6 |
| 20260506073508 | 52 | 352 | 3.0 | 10.0 | 0.02 | 0.14 | 0.04 | 90 | 1009.3 |
| 20260506073028 | 53 | 45 | 3.0 | 9.0 | 0.00 | 0.12 | 0.03 | 90 | 1010.2 |
| 20260506072508 | 53 | 45 | 4.0 | 9.0 | 0.00 | 0.12 | 0.03 | 90 | 1009.2 |
| 20260506072010 | 53 | 52 | 4.0 | 9.0 | 0.00 | 0.12 | 0.03 | 90 | 1009.2 |
| 20260506071528 | 53 | 58 | 3.0 | 9.0 | 0.00 | 0.12 | 0.03 | 90 | 1009.2 |
| 20260506071010 | 53 | 28 | 4.0 | 10.0 | 0.00 | 0.12 | 0.03 | 90 | 1009.3 |
| 20260506070510 | 53 | 63 | 5.0 | 11.0 | 0.00 | 0.12 | 0.03 | 91 | 1009.3 |
| 20260506062502 | 52 | 30 | 3.0 | 9.0 | 0.01 | 0.12 | 0.03 | 94 | 1008.9 |
| 20260506062011 | 52 | 31 | 4.0 | 9.0 | 0.01 | 0.12 | 0.03 | 94 | 1009.1 |
| 20260506061528 | 51 | 45 | 4.0 | 9.0 | 0.01 | 0.12 | 0.03 | 94 | 1009.1 |
| 20260506061009 | 50 | 52 | 4.0 | 9.0 | 0.01 | 0.12 | 0.03 | 93 | 1009.0 |
| 20260506060510 | 50 | 54 | 4.0 | 8.0 | 0.01 | 0.12 | 0.03 | 92 | 1009.0 |
| 20260506051013 | 54 | 154 | 1.0 | 2.0 | 0.02 | 0.11 | 0.02 | 92 | 1009.4 |
| 20260506050511 | 54 | 154 | 0.0 | 4.0 | 0.02 | 0.11 | 0.02 | 92 | 1009.4 |
| 20260506045010 | 55 | 144 | 0.0 | 5.0 | 0.02 | 0.09 | 0.01 | 91 | 1009.7 |
| 20260506044537 | 55 | 251 | 1.0 | 5.0 | 0.02 | 0.09 | 0.01 | 90 | 1009.5 |
| 20260506044009 | 55 | 154 | 2.0 | 6.0 | 0.02 | 0.09 | 0.01 | 90 | 1009.2 |
| 20260506043511 | 55 | 312 | 1.0 | 7.0 | 0.02 | 0.09 | 0.01 | 90 | 1009.3 |
| 20260506043030 | 55 | 137 | 3.0 | 9.0 | 0.01 | 0.09 | 0.00 | 90 | 1008.7 |
| 20260506042509 | 55 | 133 | 3.0 | 7.0 | 0.01 | 0.09 | 0.00 | 90 | 1008.7 |
| 20260506042011 | 55 | 108 | 2.0 | 9.0 | 0.01 | 0.09 | 0.00 | 90 | 1008.7 |
| 20260506041531 | 55 | 84 | 3.0 | 8.0 | 0.01 | 0.09 | 0.00 | 90 | 1008.6 |
| 20260506041009 | 55 | 130 | 1.0 | 5.0 | 0.01 | 0.09 | 0.00 | 89 | 1008.7 |
| 20260506040509 | 55 | 125 | 1.0 | 5.0 | 0.01 | 0.09 | 0.00 | 89 | 1008.6 |
| 20260506040035 | 55 | 139 | 1.0 | 5.0 | 0.01 | 0.09 | 0.00 | 88 | 1008.7 |
| 20260506035509 | 55 | 94 | 1.0 | 5.0 | 0.01 | 0.08 | 0.08 | 86 | 1008.7 |
| 20260506035010 | 56 | 78 | 0.0 | 5.0 | 0.01 | 0.08 | 0.08 | 86 | 1008.8 |
| 20260506034532 | 56 | 91 | 1.0 | 6.0 | 0.01 | 0.08 | 0.08 | 84 | 1008.9 |
| 20260506034010 | 56 | 92 | 2.0 | 6.0 | 0.01 | 0.08 | 0.08 | 84 | 1008.6 |
| 20260506033511 | 56 | 165 | 1.0 | 2.0 | 0.01 | 0.08 | 0.08 | 83 | 1008.8 |
| 20260506033027 | 56 | 124 | 0.0 | 3.0 | 0.01 | 0.08 | 0.08 | 84 | 1008.6 |
| 20260506032510 | 56 | 124 | 0.0 | 3.0 | 0.01 | 0.08 | 0.08 | 83 | 1008.6 |
| 20260506032011 | 56 | 125 | 0.0 | 3.0 | 0.01 | 0.08 | 0.08 | 81 | 1008.5 |
| 20260506031539 | 56 | 125 | 0.0 | 3.0 | 0.01 | 0.08 | 0.08 | 81 | 1008.3 |
| 20260506031011 | 56 | 124 | 0.0 | 4.0 | 0.01 | 0.08 | 0.08 | 81 | 1008.3 |
| 20260506030512 | 56 | 126 | 0.0 | 4.0 | 0.01 | 0.08 | 0.08 | 81 | 1008.3 |
| 20260506030030 | 57 | 82 | 1.0 | 4.0 | 0.01 | 0.08 | 0.08 | 79 | 1008.5 |
| 20260506025510 | 57 | 82 | 3.0 | 4.0 | 0.00 | 0.07 | 0.07 | 80 | 1008.4 |
| 20260506025012 | 58 | 239 | 0.0 | 2.0 | 0.00 | 0.07 | 0.07 | 78 | 1008.6 |
| 20260506024531 | 58 | 113 | 0.0 | 2.0 | 0.00 | 0.07 | 0.07 | 75 | 1008.2 |
| 20260506024010 | 59 | 113 | 0.0 | 6.0 | 0.00 | 0.07 | 0.07 | 75 | 1008.2 |
| 20260506023512 | 59 | 140 | 1.0 | 8.0 | 0.00 | 0.07 | 0.07 | 73 | 1007.8 |
| 20260506023051 | 60 | 128 | 1.0 | 12.0 | 0.00 | 0.07 | 0.07 | 73 | 1007.8 |
| 20260506022509 | 60 | 32 | 3.0 | 13.0 | 0.00 | 0.07 | 0.07 | 76 | 1008.0 |
| 20260506022017 | 59 | 71 | 4.0 | 13.0 | 0.00 | 0.07 | 0.07 | 80 | 1008.0 |
| 20260506021557 | 59 | 46 | 3.0 | 6.0 | 0.00 | 0.07 | 0.07 | 83 | 1008.0 |
| 20260506021016 | 59 | 24 | 0.0 | 5.0 | 0.00 | 0.07 | 0.07 | 84 | 1007.8 |
| 20260506020512 | 58 | 319 | 2.0 | 5.0 | 0.00 | 0.07 | 0.07 | 84 | 1007.6 |
| 20260506020003 | 58 | 142 | 1.0 | 2.0 | 0.00 | 0.07 | 0.07 | 84 | 1007.2 |
| 20260506015512 | 58 | 209 | 0.0 | 2.0 | 0.00 | 0.07 | 0.07 | 84 | 1007.2 |
| 20260506015012 | 58 | 238 | 1.0 | 2.0 | 0.00 | 0.07 | 0.07 | 83 | 1007.0 |
| 20260506014529 | 58 | 238 | 0.0 | 2.0 | 0.00 | 0.07 | 0.07 | 83 | 1006.9 |
| 20260506014012 | 58 | 240 | 1.0 | 6.0 | 0.00 | 0.07 | 0.07 | 83 | 1007.1 |
| 20260506013513 | 57 | 240 | 4.0 | 6.0 | 0.00 | 0.07 | 0.07 | 85 | 1007.2 |
| 20260506013033 | 56 | 213 | 2.0 | 8.0 | 0.00 | 0.07 | 0.07 | 84 | 1007.2 |
| 20260506012512 | 57 | 248 | 3.0 | 9.0 | 0.00 | 0.07 | 0.07 | 83 | 1007.1 |
| 20260506012011 | 57 | 236 | 2.0 | 9.0 | 0.00 | 0.07 | 0.07 | 83 | 1007.2 |
| 20260506011530 | 57 | 325 | 3.0 | 7.0 | 0.00 | 0.07 | 0.07 | 83 | 1007.0 |
| 20260506011013 | 57 | 229 | 2.0 | 6.0 | 0.00 | 0.07 | 0.07 | 83 | 1006.6 |
| 20260506010509 | 57 | 209 | 1.0 | 4.0 | 0.00 | 0.07 | 0.07 | 82 | 1006.2 |
| 20260506010035 | 58 | 229 | 0.0 | 3.0 | 0.00 | 0.07 | 0.07 | 82 | 1006.1 |
| 20260506005513 | 59 | 178 | 1.0 | 3.0 | 0.00 | 0.07 | 0.07 | 82 | 1006.3 |
| 20260506005014 | 59 | 175 | 0.0 | 3.0 | 0.00 | 0.07 | 0.07 | 82 | 1006.0 |
| 20260506004530 | 59 | 208 | 0.0 | 3.0 | 0.00 | 0.07 | 0.07 | 81 | 1006.2 |
| 20260506004004 | 60 | 209 | 1.0 | 4.0 | 0.00 | 0.07 | 0.07 | 80 | 1006.3 |
| 20260506003517 | 60 | 210 | 2.0 | 4.0 | 0.00 | 0.07 | 0.07 | 80 | 1006.2 |
| 20260506003032 | 60 | 206 | 1.0 | 4.0 | 0.00 | 0.07 | 0.07 | 80 | 1006.0 |
| 20260506002512 | 60 | 248 | 2.0 | 4.0 | 0.00 | 0.07 | 0.07 | 80 | 1006.1 |
| 20260506002012 | 61 | 246 | 1.0 | 4.0 | 0.00 | 0.07 | 0.07 | 80 | 1005.9 |
| 20260506001531 | 60 | 201 | 2.0 | 8.0 | 0.00 | 0.07 | 0.07 | 80 | 1005.9 |
| 20260506001013 | 60 | 238 | 4.0 | 7.0 | 0.00 | 0.07 | 0.07 | 81 | 1005.8 |
| 20260506000512 | 60 | 170 | 0.0 | 8.0 | 0.00 | 0.07 | 0.07 | 80 | 1005.8 |
| 20260506000029 | 60 | 206 | 5.0 | 8.0 | 0.00 | 0.07 | 0.07 | 80 | 1005.8 |
| 20260505235513 | 60 | 236 | 2.0 | 7.0 | 0.00 | 0.07 | 0.07 | 78 | 1005.7 |
| 20260505235013 | 61 | 248 | 3.0 | 8.0 | 0.00 | 0.07 | 0.07 | 79 | 1005.5 |
| 20260505234533 | 61 | 225 | 3.0 | 6.0 | 0.00 | 0.07 | 0.07 | 79 | 1005.5 |
| 20260505234010 | 61 | 236 | 3.0 | 8.0 | 0.00 | 0.07 | 0.07 | 78 | 1005.5 |
| 20260505233514 | 62 | 227 | 4.0 | 10.0 | 0.00 | 0.07 | 0.07 | 77 | 1005.6 |
| 20260505233030 | 62 | 229 | 5.0 | 10.0 | 0.00 | 0.07 | 0.07 | 78 | 1005.6 |
| 20260505232512 | 62 | 248 | 5.0 | 9.0 | 0.00 | 0.07 | 0.07 | 79 | 1005.7 |
| 20260505232017 | 61 | 251 | 4.0 | 9.0 | 0.00 | 0.07 | 0.07 | 79 | 1005.6 |
| 20260505231547 | 61 | 234 | 4.0 | 9.0 | 0.00 | 0.07 | 0.07 | 81 | 1005.6 |
| 20260505231016 | 60 | 210 | 3.0 | 7.0 | 0.00 | 0.07 | 0.07 | 81 | 1005.8 |
| 20260505230513 | 60 | 213 | 3.0 | 7.0 | 0.00 | 0.07 | 0.07 | 81 | 1005.5 |
| 20260505230030 | 61 | 214 | 2.0 | 10.0 | 0.00 | 0.07 | 0.07 | 79 | 1005.3 |
| 20260505225513 | 61 | 227 | 6.0 | 10.0 | 0.00 | 0.07 | 0.07 | 82 | 1005.3 |
| 20260505225012 | 61 | 227 | 1.0 | 7.0 | 0.00 | 0.07 | 0.07 | 79 | 1005.3 |
| 20260505224532 | 62 | 216 | 3.0 | 9.0 | 0.00 | 0.07 | 0.07 | 79 | 1005.2 |
| 20260505224011 | 63 | 333 | 2.0 | 9.0 | 0.00 | 0.07 | 0.07 | 77 | 1005.0 |
| 20260505223513 | 63 | 234 | 4.0 | 11.0 | 0.00 | 0.07 | 0.07 | 79 | 1005.2 |
| 20260505223034 | 63 | 222 | 7.0 | 12.0 | 0.00 | 0.07 | 0.07 | 80 | 1005.1 |
| 20260505222517 | 63 | 215 | 5.0 | 8.0 | 0.00 | 0.07 | 0.07 | 78 | 1005.1 |
| 20260505222013 | 63 | 215 | 2.0 | 7.0 | 0.00 | 0.07 | 0.07 | 77 | 1005.2 |
| 20260505221535 | 63 | 271 | 1.0 | 6.0 | 0.00 | 0.07 | 0.07 | 76 | 1005.2 |
| 20260505221012 | 64 | 225 | 3.0 | 6.0 | 0.00 | 0.07 | 0.07 | 76 | 1005.3 |
| 20260505220515 | 65 | 197 | 2.0 | 7.0 | 0.00 | 0.07 | 0.07 | 75 | 1005.6 |
| 20260505220032 | 66 | 249 | 1.0 | 4.0 | 0.00 | 0.07 | 0.07 | 79 | 1005.4 |
| 20260505215512 | 65 | 240 | 0.0 | 6.0 | 0.00 | 0.07 | 0.07 | 80 | 1005.3 |
| 20260505215014 | 65 | 53 | 1.0 | 6.0 | 0.00 | 0.07 | 0.07 | 79 | 1004.9 |
| 20260505214540 | 65 | 189 | 3.0 | 11.0 | 0.00 | 0.07 | 0.07 | 80 | 1005.0 |
| 20260505214018 | 65 | 164 | 3.0 | 11.0 | 0.00 | 0.07 | 0.07 | 80 | 1004.7 |
| 20260505213512 | 65 | 128 | 5.0 | 9.0 | 0.00 | 0.07 | 0.07 | 79 | 1004.8 |
| 20260505213037 | 65 | 146 | 2.0 | 8.0 | 0.00 | 0.07 | 0.07 | 79 | 1004.8 |
| 20260505212514 | 66 | 163 | 1.0 | 8.0 | 0.00 | 0.07 | 0.07 | 79 | 1004.7 |
| 20260505212011 | 66 | 158 | 3.0 | 8.0 | 0.00 | 0.07 | 0.07 | 79 | 1004.8 |